SCP
0 0 0 0 0 0 -0 -0 0 0 0 0 0 0 0 0 0 0 0 1 1 1 2 3 3 4 5 6 7 7 7 8 7 6 6 6 5 5 4 4 3 3 2 2
0 0 0 0 0 0 -0 0 0 0 0 0 0 0 0 0 0 0 0 1 1 2 3 3 4 5 5 6 7 7 7 8 8 7 6 6 5 5 4 3 3 3 2 2
0 0 0 0 0 0 0 0 0 0 0 0 0 0 0 0 0 1 1 1 2 2 3 4 5 5 6 7 7 7 8 8 8 7 7 6 5 4 4 3 3 2 2 1
-0 0 0 0 0 0 0 0 0 0 0 0 0 0 0 0 1 1 1 2 2 3 4 4 5 6 6 7 7 7 8 8 8 7 6 5 5 4 3 2 2 1 1 1
0 0 0 0 0 0 0 0 0 0 0 0 0 0 0 0 1 2 3 3 3 4 4 4 5 5 6 6 6 7 7 7 7 6 5 5 4 3 2 2 1 1 1 1
0 0 0 0 0 0 0 0 0 0 0 0 0 0 0 1 2 3 4 4 4 3 3 3 4 4 4 5 5 5 6 5 5 4 4 3 3 2 2 1 1 1 0 0
0 0 0 0 0 0 0 0 0 0 0 0 0 0 1 2 3 4 4 3 3 2 2 2 2 2 3 3 3 3 3 3 3 3 3 2 2 1 1 1 0 0 0 0
0 0 0 0 0 -0 0 0 0 0 0 0 0 0 2 3 3 3 3 2 2 2 1 1 1 1 1 1 1 2 2 2 2 2 2 1 1 1 1 0 0 0 0 0
0 0 0 0 0 0 0 0 0 0 0 0 0 1 2 3 3 2 2 1 1 1 1 1 0 0 0 0 1 1 1 1 1 1 1 1 0 0 0 0 0 0 0 0
0 0 0 0 0 0 0 0 0 0 0 0 0 1 2 2 2 2 1 1 1 0 0 0 0 0 0 0 0 0 0 0 0 0 0 0 0 0 0 0 0 0 0 0
0 0 0 0 0 0 0 0 0 0 0 0 0 0 1 2 2 1 1 0 0 0 0 0 0 0 0 0 0 0 0 0 0 0 0 0 0 0 0 0 0 0 0 0
0 0 0 0 0 0 0 0 0 0 0 0 0 1 1 2 1 1 0 0 0 0 0 0 0 0 0 0 0 0 0 0 0 0 0 0 0 0 0 0 0 0 0 0
0 0 0 0 0 0 0 0 0 0 0 0 0 1 1 1 1 1 0 0 0 0 0 0 0 0 0 0 0 0 0 0 0 0 0 0 0 0 0 0 0 0 0 0
0 0 0 0 0 0 0 0 0 0 0 0 0 1 1 1 1 0 0 0 0 0 0 0 0 0 0 0 0 0 0 0 0 0 0 0 0 0 0 0 0 0 0 0
0 0 0 0 0 0 0 0 0 0 0 0 0 1 1 1 1 0 0 0 0 0 0 0 0 0 0 0 0 0 0 0 0 0 0 0 0 0 0 0 0 0 0 0
0 0 0 0 0 0 0 0 0 0 0 0 1 1 1 1 0 0 0 0 0 0 0 0 0 0 0 0 0 0 0 0 0 0 0 0 0 0 0 0 0 0 0 0
0 0 0 0 0 0 0 0 0 0 0 1 1 1 0 0 0 0 0 0 0 0 0 0 0 0 0 0 0 0 0 0 0 0 0 0 0 0 0 0 0 0 0 0
0 0 0 0 0 0 0 0 0 0 0 1 1 0 0 0 0 0 0 0 0 0 0 0 0 0 0 0 0 0 0 0 0 0 0 0 0 0 0 0 0 0 0 0
0 0 0 0 0 0 0 0 0 0 0 0 0 0 0 0 0 0 0 0 0 0 0 0 0 0 0 0 0 0 0 0 0 0 0 0 0 0 0 0 0 0 0 0
0 0 0 0 0 0 0 0 0 0 0 0 0 0 0 0 0 0 0 0 0 0 0 0 0 0 0 0 0 0 0 0 0 0 0 0 0 0 0 0 0 0 0 0
0 0 0 0 0 0 0 0 0 0 0 0 0 0 0 0 0 0 0 0 0 0 0 0 0 0 0 0 0 0 0 0 0 0 0 0 0 0 0 0 0 0 0 0
0 0 0 0 0 0 0 0 0 0 0 0 0 0 0 0 0 0 0 0 0 0 0 0 0 0 0 0 0 0 0 0 0 0 0 0 0 0 0 0 0 0 0 0
0 0 0 0 0 0 0 0 0 0 0 0 0 0 0 0 0 0 0 0 0 0 0 0 0 0 0 0 0 0 0 0 0 0 0 0 0 0 0 0 0 0 0 0
0 0 0 0 0 0 0 0 0 0 0 0 0 0 0 0 0 0 0 0 0 0 0 0 0 0 0 0 0 0 0 0 0 0 0 0 0 0 0 0 0 0 0 0
0 0 0 0 0 0 0 0 0 0 0 0 0 0 0 0 0 0 0 0 0 0 0 0 0 0 0 0 0 0 0 0 0 0 0 0 0 0 0 0 0 0 0 0
0 0 0 0 0 0 0 0 0 0 0 0 0 0 0 0 0 0 0 0 0 0 0 0 0 0 0 0 0 0 0 0 0 0 0 0 0 0 0 0 0 0 0 0
Wind_Speed
13 13 14 15 17 17 18 14 13 12 8 12 13 13 14 10 8 9 8 5 4 4 3 6 7 8 9 10 12 11 11 11 10 8 9 7 6 5 4 4 5 5 4 4
13 16 16 16 15 16 17 16 14 11 6 6 9 12 13 12 9 6 4 1 2 5 8 9 8 5 5 8 10 11 11 11 10 7 6 5 6 4 4 4 5 5 5 4
18 14 15 17 16 14 14 14 14 13 8 7 9 14 16 14 10 6 4 1 3 6 9 9 9 7 4 4 8 9 10 10 9 9 7 6 5 5 4 4 4 5 5 5
16 16 12 12 15 14 13 13 14 15 12 10 11 12 15 14 12 8 4 4 8 11 12 12 12 11 9 5 2 5 9 9 9 9 8 9 7 6 5 5 6 6 6 6
13 15 14 13 13 13 13 13 13 14 14 14 14 15 13 13 13 9 8 10 12 14 14 14 14 13 12 10 6 5 8 8 7 7 7 7 6 6 6 7 9 8 7 7
15 12 13 13 12 11 11 13 12 12 12 16 17 16 13 9 8 12 14 14 14 14 14 14 14 14 13 13 10 8 10 9 8 7 7 8 9 9 10 10 8 7 6 6
13 14 13 11 11 12 12 11 9 11 13 15 16 16 6 5 15 18 17 15 14 15 14 14 14 14 13 14 14 12 12 12 11 11 10 10 10 10 10 9 8 7 6 6
10 12 12 12 12 10 11 13 12 11 11 11 12 11 5 14 18 19 18 16 16 15 14 14 13 13 12 13 13 14 15 15 13 12 11 10 9 8 7 8 7 7 7 7
6 8 7 9 11 13 13 13 15 15 17 15 9 4 10 14 16 16 17 16 15 14 14 13 12 12 12 13 13 13 15 15 14 14 13 12 11 10 10 9 9 8 7 7
7 9 9 9 10 13 15 12 8 11 12 14 12 5 7 15 14 14 15 15 14 14 13 13 11 11 11 11 12 13 14 14 13 13 12 11 11 11 10 10 10 9 9 8
8 8 10 9 11 12 11 14 11 10 11 12 12 2 4 13 13 14 14 14 13 13 12 11 10 10 10 11 12 12 13 13 13 13 12 12 11 11 11 10 10 9 8 7
7 7 9 11 11 10 9 11 10 9 11 12 11 1 7 13 15 15 14 13 13 13 11 11 10 10 11 11 12 12 12 13 13 12 12 12 11 11 11 11 10 9 8 7
9 6 8 8 6 5 8 9 9 9 9 10 11 2 9 13 14 14 14 13 12 12 11 11 11 11 11 12 12 12 12 12 12 12 12 12 12 11 11 10 9 8 8 7
5 8 9 8 7 7 9 12 11 10 9 9 6 5 7 9 12 12 13 13 12 11 11 11 11 11 11 11 11 11 12 11 12 12 12 11 11 10 9 9 8 7 7 7
5 10 11 7 8 8 9 9 8 9 11 7 1 4 5 8 11 12 13 13 13 12 12 11 11 10 10 10 10 10 10 10 10 10 11 10 9 8 8 7 7 6 6 6
7 9 13 12 9 7 7 7 5 6 7 5 7 6 9 11 13 13 12 13 13 12 11 11 11 10 10 9 9 9 9 9 9 9 9 8 7 7 6 6 6 5 5 5
8 10 11 11 11 9 3 6 7 8 11 8 7 7 12 13 12 10 11 12 12 12 11 10 10 9 8 8 8 8 8 8 8 8 7 6 6 6 5 5 5 4 4 3
6 8 7 9 9 7 6 11 10 10 14 13 14 13 13 14 14 11 10 12 11 11 10 9 8 8 7 7 7 7 7 7 7 6 5 5 5 5 4 4 4 3 2 2
3 5 6 6 8 2 7 11 11 7 10 11 11 13 14 15 14 11 9 10 11 10 9 8 7 7 7 6 6 6 6 5 5 5 5 5 5 4 4 4 3 2 2 2
2 4 5 7 8 4 6 8 9 3 5 8 9 9 10 7 5 5 7 9 10 9 8 7 7 7 6 5 5 5 5 5 5 5 5 4 4 3 3 3 2 2 2 2
5 4 5 6 4 4 9 12 8 3 4 6 7 7 7 5 7 10 10 9 9 9 8 7 6 6 5 5 4 4 5 5 5 5 4 4 3 2 2 2 2 2 2 2
6 6 6 5 3 4 11 9 8 5 5 7 9 11 13 14 14 12 11 10 9 8 7 6 5 5 4 4 4 5 5 4 4 4 3 3 2 3 3 2 2 3 3 3
4 5 4 4 3 4 6 7 6 5 7 8 10 12 14 14 13 12 11 9 8 8 6 5 6 6 5 4 4 4 4 3 3 2 2 1 1 2 2 3 3 3 3 3
3 4 2 3 5 6 7 7 8 8 8 9 11 13 13 14 13 12 10 9 7 6 6 5 6 6 6 5 4 3 3 2 2 1 1 1 0 1 1 2 3 4 5 6
5 4 3 3 4 6 7 8 8 8 10 11 12 12 13 13 12 11 9 8 7 6 6 6 6 6 6 5 4 4 3 2 2 1 1 1 0 0 1 4 5 5 6 5
5 5 4 3 4 5 6 7 7 8 10 11 12 12 11 11 11 10 9 7 7 6 6 6 6 6 5 4 4 4 3 2 2 2 2 2 2 1 1 4 5 8 6 6
Wind_Direction
211 225 228 229 228 246 264 273 264 254 214 199 219 235 245 235 219 220 222 210 189 163 116 85 95 134 146 162 158 160 163 159 160 166 171 171 162 150 140 130 128 123 120 120
220 228 240 243 240 241 259 273 276 268 229 216 237 247 252 248 229 220 217 208 70 57 62 64 82 93 149 155 162 164 164 163 168 168 162 156 148 143 130 114 100 100 108 120
230 233 228 244 251 246 249 259 267 271 253 225 246 251 248 243 231 213 196 183 66 61 58 55 54 60 77 135 168 175 166 163 169 159 147 144 130 127 121 116 103 92 95 94
238 247 244 239 245 248 249 251 262 271 267 249 233 249 238 227 216 203 183 94 64 54 52 49 46 41 35 36 99 150 151 153 162 156 158 158 156 153 137 126 107 92 84 85
238 240 242 242 248 249 253 258 254 259 265 267 253 252 248 227 207 175 122 90 73 64 52 50 45 38 34 36 37 83 112 122 131 138 146 144 135 122 110 104 100 89 77 71
251 244 246 248 249 253 254 258 261 255 254 250 249 253 252 245 175 127 100 84 76 69 59 53 47 43 37 40 44 69 89 90 94 99 101 107 108 107 108 105 104 95 85 76
242 240 237 244 246 238 238 243 244 237 233 243 238 239 239 99 97 106 102 91 79 71 64 56 49 45 42 43 47 57 76 79 80 83 83 88 94 99 105 110 108 106 98 89
247 244 226 221 235 243 232 237 245 253 254 261 248 233 124 104 102 103 102 95 85 76 68 60 54 52 50 50 53 60 66 68 70 75 78 80 85 89 91 93 97 93 91 91
302 280 264 233 226 240 242 236 251 267 280 281 262 161 120 118 116 113 108 99 89 80 74 67 61 59 58 58 59 64 70 71 71 73 77 77 78 82 85 86 86 88 93 97
295 298 271 247 237 234 246 250 252 255 266 276 273 215 174 155 136 119 110 103 96 88 80 74 68 66 66 67 67 68 71 73 73 75 78 83 81 81 83 83 83 86 86 88
295 282 274 252 237 243 234 245 249 258 263 268 274 305 75 141 133 122 112 106 103 96 91 86 81 75 74 72 72 73 75 76 76 76 78 80 81 81 82 83 83 84 85 87
324 304 294 284 273 271 264 253 248 255 263 271 278 43 83 117 118 115 111 107 105 102 98 94 90 85 80 76 74 73 75 76 76 77 78 78 79 79 79 79 80 80 79 77
339 308 292 287 276 303 292 282 278 269 264 266 271 109 89 102 106 111 112 106 105 103 98 91 84 80 77 75 74 73 73 75 77 78 77 74 74 74 75 75 73 74 73 71
284 285 289 289 291 301 297 299 301 288 270 268 281 119 105 104 111 115 114 110 106 101 96 90 83 77 73 71 71 72 71 73 76 76 75 73 72 72 72 72 70 69 70 70
314 295 299 278 261 256 265 277 295 297 289 278 330 103 105 113 117 116 113 111 107 101 96 91 85 80 78 75 71 71 72 73 77 80 79 78 78 78 77 75 72 68 66 70
331 307 307 295 269 258 273 302 294 293 317 9 80 81 86 101 105 110 116 114 109 104 99 95 91 85 81 79 79 78 77 76 79 82 82 82 82 81 81 81 75 70 63 57
315 316 309 298 308 295 319 22 20 27 22 32 59 91 108 102 98 104 110 110 109 105 99 92 90 86 83 80 82 82 82 82 81 81 83 85 83 78 73 74 75 69 64 59
300 312 303 299 307 294 45 25 25 51 50 58 82 90 89 94 88 81 92 105 106 106 105 100 96 92 89 88 87 87 88 90 91 93 91 86 83 80 78 72 64 57 52 49
278 299 301 299 297 303 45 10 358 17 55 58 91 103 106 108 94 73 76 92 100 101 100 100 102 104 101 99 100 102 102 106 101 90 81 73 69 68 64 63 60 51 30 23
280 275 279 297 310 351 26 344 321 336 74 54 90 113 130 135 108 106 103 102 103 103 104 106 108 109 110 116 122 120 115 104 95 89 81 74 65 56 48 48 34 19 351 352
320 307 300 308 308 61 360 342 338 9 58 57 83 92 94 76 98 122 120 112 111 112 115 118 119 121 130 141 137 119 107 96 90 86 79 69 55 56 62 37 13 348 350 3
344 344 350 345 350 29 3 16 38 61 83 90 91 96 99 103 111 119 120 119 120 122 125 127 127 127 127 125 118 104 97 95 95 92 85 74 35 11 45 23 18 10 2 353
20 24 0 28 55 84 51 58 68 82 90 98 106 113 118 119 121 121 121 123 126 130 136 143 137 126 115 105 97 97 100 101 99 97 97 87 41 35 26 11 28 29 23 7
50 41 27 69 99 91 78 71 70 76 91 105 115 122 124 124 126 128 129 130 135 144 149 147 131 120 113 109 104 100 96 97 93 77 100 198 120 17 68 42 34 43 29 17
349 355 14 61 86 91 76 73 80 87 98 107 114 120 124 127 130 132 132 136 143 142 132 128 121 118 117 117 113 105 88 70 66 22 316 308 37 37 99 86 51 54 64 50
31 26 25 55 62 91 94 86 95 103 108 115 118 118 123 128 129 132 133 137 136 129 123 119 118 118 118 113 101 87 75 53 26 2 354 346 360 27 78 119 108 69 97 106